Meeker, CO

6:25 AM MDT on August 20, 2017 (GMT -0600)
Meeker

Weather History for KEEO - December, 2013

Change the Weather History Date:

Friday, December 13, 2013

  Actual Average Record
Temperature  
Mean Temperature 8 °F 21 °F  
Max Temperature 23 °F 34 °F 53 °F (2014)
Min Temperature -8 °F 9 °F -8 °F (2007)
Degree Days  
Heating Degree Days 57 44  
Month to date heating degree days 728 545  
Since 1 July heating degree days 2626 2481  
Cooling Degree Days 0 0  
Month to date cooling degree days 0 0  
Year to date cooling degree days 324 172  
Moisture  
Dew Point 4 °F    
Average Humidity 80    
Maximum Humidity 100    
Minimum Humidity 59    
Precipitation  
Precipitation 0.00 in 0.03 in 0.16 in (1999)
Month to date precipitation 0.76 0.48  
Year to date precipitation 17.76 15.43  
Sea Level Pressure  
Sea Level Pressure 30.37 in    
Wind  
Wind Speed 1 mph (NW)    
Max Wind Speed 8 mph    
Max Gust Speed 9 mph    
Visibility 10 miles    
Events      
T = Trace of Precipitation, MM = Missing Value Source: NWS Daily Summary

Daily Weather History Graph

Daily Weather History Graph

Search for Another Location

Airport or City:

Trip Planner

Search our weather history database for the weather conditions in past years. The results will help you decide how hot, cold, wet, or windy it might be!

Date:

Astronomy

Dec. 13, 2013 Rise Set
Actual Time 7:25 AM MST 4:46 PM MST
Civil Twilight 6:54 AM MST 5:17 PM MST
Nautical Twilight 6:20 AM MST 5:51 PM MST
Astronomical Twilight 5:47 AM MST 6:24 PM MST
Moon 2:31 PM MST (12/13) 3:50 AM MST (12/13)
Length of Visible Light 10h 22m
Length of Day
9h 21m
Waxing Gibbous, 88% of the Moon is Illuminated
Dec 13
Waxing Gibbous
Dec 17
Full
Dec 25
Last Quarter
Jan 1
New
Jan 7
First Quarter

Hourly Weather History & Observations

Time (MST) Temp. Windchill Dew Point Humidity Pressure Visibility Wind Dir Wind Speed Gust Speed Precip Events Conditions
12:53 AM -2.0 °F - -7.1 °F 79% 30.36 in 10.0 mi Calm Calm - N/A   Clear
1:53 AM -2.0 °F - -5.1 °F 87% 30.32 in 10.0 mi Calm Calm - N/A   Clear
2:53 AM -4.0 °F - -8.0 °F 83% 30.32 in 10.0 mi Calm Calm - N/A   Clear
3:53 AM -8.0 °F - -9.9 °F 91% 30.33 in 10.0 mi Calm Calm - N/A   Clear
4:53 AM -4.0 °F - -8.0 °F 83% 30.35 in 10.0 mi Calm Calm - N/A   Clear
5:53 AM -4.0 °F - -6.0 °F 91% 30.37 in 10.0 mi Calm Calm - N/A   Clear
6:53 AM -6.0 °F - -11.9 °F 75% 30.41 in 10.0 mi Calm Calm - N/A   Clear
7:53 AM -4.0 °F - -8.0 °F 83% 30.42 in 10.0 mi Calm Calm - N/A   Clear
8:53 AM -0.0 °F - -2.9 °F 88% 30.39 in 10.0 mi Calm Calm - N/A   Clear
9:53 AM 3.9 °F - 3.9 °F 100% 30.40 in 10.0 mi Calm Calm - N/A   Clear
10:53 AM 10.0 °F - 6.1 °F 84% 30.36 in 10.0 mi Calm Calm - N/A   Clear
11:53 AM 16.0 °F - 10.0 °F 77% 30.32 in 10.0 mi Calm Calm - N/A   Mostly Cloudy
12:53 PM 19.0 °F - 10.9 °F 71% 30.28 in 10.0 mi Calm Calm - N/A   Overcast
1:53 PM 23.0 °F - 10.9 °F 60% 30.27 in 10.0 mi Calm Calm - N/A   Clear
2:53 PM 19.9 °F 14.9 °F 12.0 °F 71% 30.31 in 10.0 mi WSW 3.5 mph - N/A   Clear
3:53 PM 21.0 °F 16.2 °F 12.0 °F 68% 30.34 in 10.0 mi East 3.5 mph - N/A   Overcast
4:53 PM 19.9 °F - 12.0 °F 71% 30.35 in 10.0 mi Calm Calm - N/A   Overcast
5:53 PM 19.9 °F - 12.9 °F 74% 30.38 in 10.0 mi Calm Calm - N/A   Overcast
6:53 PM 19.9 °F 14.9 °F 14.0 °F 78% 30.41 in 10.0 mi North 3.5 mph - N/A   Overcast
7:53 PM 19.0 °F - 12.0 °F 74% 30.43 in 10.0 mi Calm Calm - N/A   Overcast
8:53 PM 19.0 °F - 14.0 °F 81% 30.43 in 10.0 mi Calm Calm - N/A   Overcast
9:53 PM 18.0 °F 12.7 °F 14.0 °F 84% 30.45 in 10.0 mi West 3.5 mph - N/A   Overcast
10:53 PM 18.0 °F - 12.9 °F 81% 30.45 in 10.0 mi Calm Calm - N/A   Overcast
11:53 PM 17.1 °F - 12.9 °F 84% 30.44 in 10.0 mi Calm Calm - N/A   Overcast